Location: Quebec
(46.8000°N, 71.2500°W)
Time: 20:09:09
(UTC-04:00)

X-37B - Visible Passes

Search period start: 22 June 2021 00:00
Search period end: 02 July 2021 00:00
Orbit: 386 x 389 km, 45.0° (Epoch: 10 June)

Date Brightness Start Highest point End Pass type
(mag) Time Alt. Az. Time Alt. Az. Time Alt. Az.
22 Jun 1.5 02:20:14 33° SE 02:20:14 33° SE 02:22:20 10° ESE visible
22 Jun 2.3 03:53:25 10° WSW 03:55:26 16° SSW 03:57:27 10° S visible
22 Jun 2.0 22:05:48 10° SSW 22:08:12 20° SSE 22:08:47 19° SE visible
23 Jun 3.0 02:59:41 11° SSE 02:59:41 11° SSE 02:59:53 10° SSE visible
23 Jun 0.9 22:43:09 10° SW 22:46:10 41° SSE 22:47:14 29° ESE visible
24 Jun 3.3 00:19:29 10° W 00:19:35 11° W 00:19:35 11° W visible
24 Jun 1.5 21:45:06 10° SW 21:47:55 29° SSE 21:50:45 10° E visible
24 Jun 0.5 23:21:09 10° WSW 23:24:18 62° S 23:24:24 61° SSE visible
25 Jun 0.7 22:22:53 10° WSW 22:26:00 53° S 22:28:43 13° E visible
25 Jun 2.1 23:59:21 10° W 00:01:00 27° WSW 00:01:00 27° WSW visible
26 Jun 1.0 21:24:40 10° SW 21:27:43 41° SSE 21:30:44 10° E visible
26 Jun 0.5 23:01:01 10° W 23:04:10 63° S 23:05:06 40° ESE visible
27 Jun 0.6 22:02:41 10° WSW 22:05:51 62° S 22:08:59 10° E visible
27 Jun 1.7 23:39:15 10° W 23:41:20 33° WSW 23:41:20 33° WSW visible
28 Jun 0.6 22:40:53 10° W 22:44:01 57° S 22:45:17 31° ESE visible
29 Jun 0.6 21:42:32 10° W 21:45:42 63° S 21:48:51 10° E visible
29 Jun 1.7 23:19:12 10° W 23:21:26 30° SW 23:21:26 30° SW visible
30 Jun 0.9 22:20:47 10° W 22:23:51 46° SSW 22:25:20 25° SE visible
01 Jul 0.8 21:22:25 10° W 21:25:33 57° S 21:28:40 10° ESE visible
01 Jul 2.1 22:59:16 10° W 23:01:30 23° SW 23:01:30 23° SW visible
